Vertical_Velocity
-2 -4 -1 4 1 0 3 3 1 -1 1 3 1 1 1 1 1 -1 -0 2 0 1 1 1 1 1 0 0 0 0 1 -2 -1 1 -1 0 -0 -1 -1 1 0 -1 -1 -1 -1
-0 -0 -2 3 1 0 3 6 3 -1 2 1 2 1 2 1 1 0 1 1 1 -0 0 1 2 1 1 1 0 -0 0 1 -0 -0 -0 -0 -1 -1 -1 1 -1 -1 -1 -1 -1
-1 0 -0 1 -5 2 3 5 4 -1 2 1 2 1 1 1 1 1 1 1 1 1 -1 0 1 -0 0 1 0 -0 -3 1 1 -0 0 0 -1 -1 -1 -0 -0 1 -0 -1 -0
2 5 1 0 3 1 1 5 5 -1 1 2 1 1 1 1 -3 -0 1 -0 0 1 -0 -0 -0 0 -0 -0 0 -2 -0 1 0 -0 0 -1 -1 0 -1 -1 -0 -0 -0 -0 -0
5 5 3 1 3 4 0 5 5 -1 1 0 1 2 1 1 -0 -0 1 1 1 -0 0 -0 -0 0 -0 -1 -1 -4 -0 0 1 1 -0 -1 -0 0 -0 -1 -1 -1 -2 -2 -2
4 2 3 1 3 2 -1 8 4 1 -1 1 0 2 -1 -0 -1 -0 -0 -0 1 0 1 1 1 1 -0 0 -2 -2 -1 0 -0 1 1 -0 -1 -1 -2 -1 -1 0 -1 -2 -2
4 -0 4 1 1 1 2 6 2 1 -1 1 1 -0 -0 2 1 1 -1 0 0 0 0 0 0 -0 0 1 0 -0 -2 -1 0 0 1 -0 0 0 -1 -1 -1 -0 -1 -1 -0
1 1 2 -1 4 2 3 6 3 0 0 1 1 -1 3 1 -1 0 0 0 3 -0 0 0 0 -0 0 -0 0 1 -1 -2 7 -1 3 1 -4 -0 -0 -1 -1 -1 -1 -1 -1
-2 1 2 4 1 3 5 5 4 0 0 1 -1 -0 -0 1 0 -1 1 -0 0 -1 0 -0 0 0 0 0 -0 1 2 -2 -1 -2 -1 -0 -2 1 0 -0 -0 -1 -0 -1 -1
2 2 4 2 2 3 4 4 1 0 -1 0 -1 -2 -2 1 1 1 0 -0 0 0 1 1 0 0 -0 0 2 -0 1 -2 -1 7 -2 -0 0 3 1 -0 -1 -1 -2 -2 0
2 3 2 -1 5 2 3 4 2 -2 1 9 4 6 1 1 -0 0 1 0 0 -0 0 -1 -0 0 -0 1 1 0 -1 0 -3 -2 -3 -2 0 1 1 -1 -0 -1 -2 -1 -0
-2 -2 2 3 1 2 2 13 10 5 3 2 0 -0 -1 -1 -1 -0 -0 -0 0 -0 -0 -0 -2 3 -1 1 -0 -0 0 -0 -0 -1 -2 -2 0 0 -2 -1 -1 -1 -2 -1 -1
1 1 0 -1 1 1 3 0 1 1 -0 -0 0 -0 -1 -1 -1 -1 -1 0 1 1 -0 -1 2 -1 -1 1 -0 0 0 -0 -1 3 -1 -1 2 -2 -3 -0 -1 -1 -2 -1 -0
-2 -0 1 3 3 2 1 -0 0 0 -1 1 -0 -1 -1 -1 -1 -0 0 0 -1 1 0 -2 4 -0 -0 -1 0 -3 4 1 1 0 -5 8 -1 5 -1 -2 0 -1 -1 0 0
3 2 2 -0 3 -1 -1 0 1 0 3 -1 -1 -0 -0 -1 -1 1 0 0 1 0 -1 -4 1 -1 -1 1 -1 2 0 1 0 1 0 1 -5 -0 -3 0 1 1 1 0 -0
2 2 2 2 1 1 1 1 2 1 -1 1 -0 1 1 1 1 1 -0 -1 -1 1 1 -2 -2 -0 -1 -0 -0 1 -0 0 -1 -0 -2 3 -1 -8 8 -1 -2 1 -0 -0 0
-2 1 1 1 1 1 1 1 1 0 2 -0 -1 -0 -1 -1 0 0 1 -0 -2 1 -1 1 1 1 1 1 1 2 1 -2 -1 3 -2 2 -1 11 1 -2 -2 -0 0 -1 1
-1 -1 -2 -1 -0 1 1 -1 0 3 -1 1 -0 -0 -1 1 1 1 0 0 0 -0 0 -0 -1 2 3 1 1 0 1 1 0 0 -6 7 2 5 -1 -1 -2 -2 -1 0 -1
-2 -0 -0 -0 -0 1 1 1 -5 2 1 0 0 -0 0 -0 0 -1 1 0 -0 0 -0 2 -3 1 1 1 2 5 2 1 -2 1 -1 1 4 7 -0 0 -2 -2 -1 -0 0
-1 0 1 -0 -1 -1 -0 -1 -0 -2 -1 -0 -0 2 -1 1 -0 -0 -0 2 1 1 0 3 -4 -1 1 1 2 1 2 1 -2 -1 -5 4 -3 -10 5 0 -6 -4 -3 -0 1
-0 -2 0 2 1 -1 -1 -0 -2 -1 -1 -0 -0 -1 -1 -1 -1 -1 1 0 1 0 -0 -0 -1 6 0 3 1 1 1 0 0 0 -7 -1 12 7 -6 -5 -7 -2 1 0 -3
1 1 1 1 1 0 1 2 2 1 0 1 2 1 1 -0 -0 -1 -0 -1 -0 0 0 -0 0 -0 3 1 1 1 1 1 -2 -0 -1 5 1 9 4 1 -3 -1 -3 -5 -6
1 1 1 1 1 -0 0 1 1 0 0 1 1 1 1 0 -0 0 -0 0 1 0 0 0 2 -0 3 -1 -0 3 2 -1 -2 -1 17 -7 20 -7 3 -7 -12 13 1 -3 -2
-1 -1 -0 0 1 1 1 2 1 1 1 0 1 1 1 0 -0 1 0 1 1 0 1 0 3 1 3 -4 -3 1 2 3 -1 -2 -5 13 -8 4 -4 -19 -13 -8 -5 3 5
-1 -1 -1 -1 -1 0 -1 -1 0 1 0 1 1 1 1 1 1 0 1 1 1 0 1 -0 3 1 0 -0 1 -1 1 -4 -0 10 -17 14 -5 7 -2 2 -2 0 5 5 -0
-0 -0 0 -0 0 -1 -0 -0 -1 -1 -1 -1 -1 -1 -1 -1 -1 -1 -1 -0 1 1 -1 -0 -3 -1 9 3 -3 -5 1 -2 2 8 -6 -1 3 -16 7 1 1 -2 -4 -1 -2
-0 0 -0 -0 0 -0 -1 0 0 -1 0 -0 0 -0 -1 -1 -1 -1 -1 -1 -0 -1 1 1 -2 -2 7 2 -3 4 3 2 -1 7 1 4 3 -4 0 1 4 -3 1 2 -3
Height
5705 5714 5725 5736 5749 5762 5773 5784 5797 5809 5817 5824 5832 5839 5845 5851 5857 5862 5867 5872 5875 5878 5881 5884 5886 5889 5891 5892 5893 5894 5896 5894 5894 5896 5897 5897 5898 5899 5898 5898 5896 5894 5892 5891 5890
5697 5706 5717 5729 5743 5756 5768 5780 5793 5805 5814 5822 5829 5837 5843 5849 5854 5860 5865 5869 5873 5876 5879 5881 5884 5886 5889 5890 5891 5892 5893 5892 5893 5894 5894 5894 5895 5895 5895 5895 5894 5892 5890 5888 5886
5692 5701 5713 5725 5739 5753 5765 5776 5790 5803 5812 5820 5828 5834 5840 5846 5853 5858 5863 5866 5870 5874 5876 5879 5881 5884 5886 5888 5889 5889 5889 5890 5891 5891 5891 5891 5891 5891 5890 5890 5890 5889 5887 5885 5883
5691 5700 5712 5725 5739 5752 5764 5775 5788 5801 5810 5819 5826 5833 5839 5845 5852 5856 5860 5864 5868 5871 5874 5877 5879 5881 5884 5885 5886 5886 5886 5888 5889 5889 5888 5888 5888 5887 5886 5886 5885 5884 5883 5882 5880
5693 5703 5714 5727 5739 5752 5764 5775 5787 5800 5810 5818 5826 5832 5838 5845 5850 5854 5858 5862 5866 5870 5872 5875 5877 5878 5880 5882 5883 5883 5884 5885 5886 5886 5885 5885 5885 5884 5883 5882 5880 5880 5879 5878 5877
5698 5708 5719 5731 5743 5754 5766 5776 5788 5801 5810 5818 5826 5831 5838 5844 5848 5853 5857 5861 5864 5867 5870 5873 5875 5876 5877 5879 5880 5880 5881 5882 5882 5883 5882 5882 5882 5881 5879 5878 5877 5876 5875 5875 5874
5706 5716 5726 5737 5747 5758 5769 5779 5790 5802 5811 5819 5826 5831 5837 5843 5847 5852 5855 5858 5862 5865 5867 5870 5872 5874 5875 5876 5877 5877 5877 5878 5879 5879 5879 5878 5878 5877 5876 5875 5874 5873 5872 5872 5871
5718 5726 5735 5743 5753 5763 5773 5783 5793 5804 5812 5820 5826 5831 5836 5841 5845 5850 5853 5857 5860 5863 5865 5867 5870 5871 5872 5874 5874 5874 5874 5874 5876 5875 5875 5874 5873 5873 5872 5871 5870 5870 5869 5868 5866
5729 5735 5742 5751 5761 5769 5778 5787 5796 5806 5814 5821 5827 5831 5836 5840 5844 5848 5852 5855 5858 5861 5863 5865 5867 5869 5870 5871 5872 5872 5871 5870 5870 5871 5870 5870 5869 5869 5868 5867 5866 5865 5864 5863 5862
5740 5745 5752 5759 5767 5775 5783 5791 5800 5808 5815 5821 5826 5832 5836 5840 5843 5847 5850 5853 5856 5859 5861 5863 5865 5866 5867 5868 5869 5868 5868 5866 5866 5868 5865 5865 5865 5865 5864 5863 5862 5861 5860 5858 5857
5750 5755 5761 5768 5773 5781 5788 5796 5805 5811 5816 5823 5827 5832 5835 5839 5842 5845 5848 5851 5854 5857 5859 5860 5862 5863 5864 5865 5865 5865 5864 5863 5861 5862 5861 5860 5861 5861 5859 5858 5857 5856 5854 5852 5851
5760 5765 5769 5774 5781 5787 5794 5801 5807 5813 5818 5822 5826 5831 5835 5838 5842 5845 5848 5851 5852 5854 5856 5858 5858 5860 5860 5861 5860 5860 5860 5859 5858 5858 5857 5856 5856 5856 5854 5853 5851 5850 5849 5847 5845
5769 5772 5776 5781 5787 5793 5799 5804 5809 5815 5820 5824 5828 5831 5835 5839 5841 5844 5847 5848 5850 5851 5852 5853 5856 5856 5856 5856 5856 5856 5855 5854 5854 5854 5852 5852 5852 5850 5849 5848 5846 5845 5843 5841 5839
5774 5778 5783 5788 5795 5798 5803 5808 5811 5816 5821 5826 5829 5832 5835 5837 5841 5842 5844 5846 5847 5849 5849 5849 5852 5851 5851 5851 5852 5850 5851 5850 5850 5849 5848 5848 5846 5846 5844 5842 5840 5839 5837 5835 5832
5779 5784 5789 5794 5799 5802 5806 5809 5814 5818 5823 5827 5830 5832 5834 5837 5839 5840 5842 5843 5844 5845 5846 5846 5847 5847 5846 5847 5846 5847 5846 5846 5845 5844 5843 5842 5841 5839 5839 5837 5834 5832 5830 5827 5824
5783 5789 5794 5797 5801 5804 5808 5811 5815 5820 5821 5826 5828 5831 5832 5834 5836 5838 5838 5840 5840 5841 5841 5841 5841 5842 5842 5842 5842 5842 5842 5841 5840 5839 5838 5837 5836 5832 5832 5830 5827 5824 5822 5819 5816
5790 5794 5798 5801 5804 5807 5810 5813 5817 5819 5823 5826 5827 5829 5830 5832 5833 5834 5835 5836 5836 5837 5836 5837 5837 5837 5837 5837 5837 5837 5836 5835 5834 5833 5832 5830 5829 5828 5823 5821 5818 5816 5813 5810 5806
5797 5799 5802 5803 5806 5808 5811 5814 5817 5819 5821 5823 5825 5827 5828 5829 5830 5831 5831 5832 5832 5832 5832 5832 5833 5833 5833 5833 5832 5831 5831 5830 5827 5826 5825 5822 5822 5819 5816 5813 5809 5806 5803 5799 5795
5799 5802 5804 5805 5807 5809 5812 5813 5814 5818 5820 5821 5823 5824 5825 5826 5827 5827 5827 5828 5828 5828 5828 5828 5827 5828 5828 5827 5827 5826 5825 5824 5821 5819 5818 5816 5813 5812 5809 5805 5799 5795 5791 5787 5782
5799 5801 5803 5805 5808 5809 5811 5812 5814 5816 5817 5819 5820 5821 5822 5823 5823 5823 5823 5824 5824 5824 5824 5824 5823 5823 5822 5822 5821 5820 5819 5818 5815 5813 5810 5810 5805 5799 5798 5792 5787 5783 5779 5774 5769
5799 5801 5802 5804 5806 5807 5809 5810 5811 5813 5815 5816 5817 5818 5818 5819 5819 5819 5820 5820 5820 5820 5819 5818 5818 5820 5817 5817 5815 5815 5813 5811 5809 5806 5802 5800 5800 5792 5788 5780 5774 5771 5766 5761 5754
5798 5800 5801 5802 5804 5805 5806 5807 5808 5809 5811 5812 5813 5814 5814 5815 5815 5815 5815 5815 5815 5814 5814 5813 5812 5811 5812 5810 5809 5808 5806 5803 5800 5798 5793 5791 5788 5785 5777 5770 5764 5758 5751 5745 5738
5797 5798 5799 5800 5802 5802 5803 5805 5805 5806 5807 5808 5809 5809 5810 5810 5811 5810 5809 5809 5809 5808 5808 5807 5807 5805 5805 5804 5802 5801 5799 5796 5791 5787 5788 5779 5780 5771 5764 5756 5749 5749 5742 5733 5727
5797 5797 5798 5798 5799 5800 5801 5802 5802 5803 5804 5804 5805 5805 5805 5805 5805 5805 5805 5804 5804 5803 5802 5801 5800 5799 5798 5794 5793 5791 5789 5786 5781 5778 5774 5771 5764 5762 5752 5738 5733 5729 5725 5722 5715
5795 5795 5796 5797 5797 5798 5798 5799 5800 5800 5801 5801 5801 5801 5801 5801 5800 5800 5799 5799 5798 5796 5795 5793 5793 5791 5789 5786 5783 5781 5779 5774 5771 5770 5761 5762 5751 5749 5740 5732 5726 5719 5713 5706 5697
5793 5793 5794 5794 5794 5795 5795 5796 5796 5796 5797 5797 5797 5796 5796 5795 5795 5794 5793 5792 5791 5789 5787 5785 5782 5781 5780 5777 5773 5771 5770 5765 5762 5757 5750 5743 5740 5729 5728 5721 5716 5709 5702 5693 5685
5788 5789 5789 5790 5790 5791 5791 5791 5791 5791 5792 5791 5791 5790 5790 5789 5788 5787 5786 5784 5783 5781 5778 5776 5772 5769 5769 5766 5762 5762 5758 5755 5749 5743 5737 5732 5726 5718 5713 5708 5703 5695 5690 5682 5672